This demonstration page uses our WeatherBlox Daily Observations layout. Learn more.

Left ArrowRight Arrow

39.08367, -84.50855

Hourly Observations for May 10, 2019

Temp ( °F °C ) Dew Point ( °F °C ) Humidity (%) Winds ( mph kmh ) Pressure ( in mb ) Visibility ( mi km ) Precip ( " mm )
12:35 am 00:35 Mostly Clear with Mist and Fog 63 17.2 63 17.2 100 100 SSW 5 7 29.9 1013 1.75 2.816345 0 0
12:40 am 00:40 Mostly Cloudy with Mist and Fog 63 17.2 62 16.7 97 97 S 3 6 29.9 1013 0.75 1.207005 0 0
12:45 am 00:45 Partly Cloudy with Fog 62 16.7 62 16.7 100 100 Calm 29.9 1013 0.25 0.402335 0 0
12:53 am 00:53 Mostly Cloudy with Fog 62 16.7 62 16.7 100 100 S 3 6 29.9 1013 0.25 0.402335 0 0
1:06 am 01:06 Mostly Cloudy with Mist and Fog 62 16.7 61 16.1 96 96 S 6 9 29.9 1013 1 1.60934 0 0
1:09 am 01:09 Partly Cloudy with Mist and Fog 62 16.7 61 16.1 96 96 S 6 9 29.9 1013 2.5 4.02335 0 0
1:16 am 01:16 Mostly Clear 62 16.7 61 16.1 96 96 SSW 7 11 29.9 1013 9 14.48406 0 0
1:53 am 01:53 Partly Cloudy 63 17.2 62 16.7 97 97 SSW 7 11 29.91 1013 10 16.0934 0 0
2:32 am 02:32 Cloudy 64 17.8 63 17.2 96 96 SSW 7 11 29.91 1013 10 16.0934 0 0
2:53 am 02:53 Cloudy 65 18.3 63 17.2 93 93 SSW 6 9 29.91 1013 10 16.0934 0 0
3:35 am 03:35 Cloudy with Light Rain 65 18.3 63 17.2 93 93 SSW 6 9 29.92 1013 10 16.0934 0 0.0254
3:53 am 03:53 Cloudy with Light Rain 65 18.3 64 17.8 97 97 WSW 5 7 29.92 1013 4 6.43736 0.02 0.508
3:58 am 03:58 Cloudy with Light Rain 65 18.3 64 17.8 97 97 VRB 6 9 29.92 1013 3 4.82802 0.01 0.254
4:06 am 04:06 Cloudy with Light Rain 65 18.3 63 17.2 93 93 W 6 9 29.93 1014 3 4.82802 0.03 0.762
4:15 am 04:15 Cloudy 65 18.3 62 16.7 90 90 WNW 8 13 29.93 1014 10 16.0934 0.03 0.762
4:53 am 04:53 Cloudy with Light Rain 63 17.2 60 15.6 90 90 WNW 5 7 29.94 1014 10 16.0934 0.03 0.762
5:27 am 05:27 Cloudy 63 17.2 60 15.6 90 90 WNW 8 13 29.95 1014 10 16.0934 0 0.0254
5:53 am 05:53 Cloudy 62 16.7 59 15 90 90 NNW 6 9 29.96 1015 10 16.0934 0 0.0254
6:53 am 06:53 Cloudy 61 16.1 58 14.4 90 90 NW 5 7 29.98 1015 10 16.0934 0 0
7:53 am 07:53 Cloudy 61 16.1 56 13.3 84 84 W 5 7 30.01 1016 10 16.0934 0 0
8:22 am 08:22 Cloudy 60 15.6 56 13.3 86 86 WNW 5 7 30.02 1016 10 16.0934 0 0.0254
8:53 am 08:53 Cloudy with Light Rain 60 15.6 56 13.3 86 86 W 7 11 30.03 1017 3 4.82802 0.01 0.254
9:09 am 09:09 Cloudy with Light Rain 59 15 56 13.3 90 90 VRB 6 9 30.04 1017 3 4.82802 0.01 0.254
9:19 am 09:19 Cloudy with Rain 59 15 57 13.9 93 93 VRB 6 9 30.04 1017 1.75 2.816345 0.04 1.016
9:25 am 09:25 Cloudy with Light Rain 59 15 57 13.9 93 93 VRB 6 9 30.04 1017 3 4.82802 0.04 1.016
9:28 am 09:28 Cloudy with Light Rain 59 15 56 13.3 90 90 VRB 7 11 30.04 1017 3 4.82802 0.04 1.016
9:53 am 09:53 Cloudy 58 14.4 55 12.8 90 90 WNW 8 13 30.06 1018 7 11.26538 0.04 1.016
10:01 am 10:01 Cloudy 57 13.9 54 12.2 90 90 W 10 17 30.07 1018 7 11.26538 0 0
10:53 am 10:53 Cloudy with Light Rain 57 13.9 54 12.2 90 90 VRB 3 6 30.08 1019 4 6.43736 0.03 0.762
11:02 am 11:02 Cloudy 58 14.4 54 12.2 87 87 NW 6 9 30.09 1019 9 14.48406 0 0.0254
11:18 am 11:18 Cloudy 58 14.4 54 12.2 87 87 NNW 6 9 30.08 1019 10 16.0934 0 0.0254
11:33 am 11:33 Cloudy 58 14.4 54 12.2 87 87 Calm 30.09 1019 10 16.0934 0 0.0254
11:53 am 11:53 Cloudy 59 15 53 11.7 81 81 WNW 7 11 30.09 1019 10 16.0934 0 0.0254
12:53 pm 12:53 Cloudy 59 15 52 11.1 78 78 VRB 5 7 30.09 1019 10 16.0934 0 0
1:53 pm 13:53 Cloudy 59 15 51 10.6 75 75 WNW 7 11 30.09 1019 10 16.0934 0 0
2:53 pm 14:53 Cloudy 61 16.1 51 10.6 70 70 VRB 3 6 30.1 1019 10 16.0934 0 0
3:35 pm 15:35 Cloudy 59 15 49 9.4 69 69 N 12 19 30.11 1020 10 16.0934 0 0
3:53 pm 15:53 Cloudy 59 15 49 9.4 69 69 N 9 15 30.1 1019 10 16.0934 0 0
4:53 pm 16:53 Cloudy 59 15 48 8.9 67 67 N 10 17 30.1 1019 10 16.0934 0 0
5:53 pm 17:53 Cloudy 58 14.4 46 7.8 65 65 VRB 6 9 30.11 1020 10 16.0934 0 0
6:53 pm 18:53 Cloudy 57 13.9 46 7.8 67 67 VRB 6 9 30.13 1020 10 16.0934 0 0
7:53 pm 19:53 Cloudy 57 13.9 45 7.2 64 64 VRB 6 9 30.12 1020 10 16.0934 0 0
8:53 pm 20:53 Cloudy 56 13.3 44 6.7 65 65 VRB 6 9 30.13 1020 10 16.0934 0 0
9:53 pm 21:53 Cloudy 54 12.2 44 6.7 69 69 N 9 15 30.14 1021 10 16.0934 0 0
10:53 pm 22:53 Mostly Cloudy 53 11.7 44 6.7 72 72 N 6 9 30.15 1021 10 16.0934 0 0
11:53 pm 23:53 Cloudy 52 11.1 44 6.7 75 75 N 5 7 30.16 1022 10 16.0934 0 0

Powered by AerisWeather